Location: Ab? ar R?sh Ba?r?
(24.1861°N, 32.8847°E)
Time: 00:34:08
(UTC+00:00)

Cosmos 2322 - Pass Details

Date: 24 October 2021
Orbit: 841 x 854 km, 71.0° (Epoch: 05 December)

Event Time Altitude Azimuth Distance (km) Brightness Sun altitude
Rises 16:55:01 0° 203° (SSW) 3,402 7.2 -23.5°
Reaches altitude 10° 16:57:29 10° 206° (SSW) 2,470 6.5 -24.1°
Maximum altitude 17:03:07 68° 289° (WNW) 915 4.0 -25.4°
Enters shadow 17:07:17 19° 9° (N) 1,930 5.4 -26.3°
